Weather in Zheleznogorsk

Russia / Krasnoyarsk Krai     56°15′10″N   93°31′56″E
temp.,
°C
wind,
m/s
gust,
m/s
humid.,
%
clouds,
%
prec.,
mm/h
press.,
hPa
HPBL,
m
5 march, fri
fri501:00−7s3882100 0.0 1022233
04:00−6s3781100 0.0 1020218
07:00−7s3584100 0.0 101999
10:00−4s2481100 0.0 1018222
13:00−1ssw2581100 0.0 1015459
16:000ssw278381 0.0 1014778
19:00−5s378383 0.0 1015134
22:00−4sw71586100 0.1 10151020
6 march, sat
sat601:00−6sw51482100 0.1 1018847
04:00−6sw5148075 0.0 1018860
07:00−5sw6139288 0.2 10181045
10:00−4sw61384100 0.1 10171349
13:00−2sw71280100 0.1 10171366
16:00−1sw71581100 0.1 10151531
19:00−2ssw51479100 0.1 1013921
22:00−2sw51575100 0.0 1011990
7 march, sun
sun701:00−3sw51476100 0.0 1011868
04:00−4sw41381100 0.0 1010804
07:00−4sw51387100 0.0 1010811
10:00−3sw61188100 0.1 10101002
13:00−1wsw81376100 0.2 10121444
16:00−2w81283100 0.7 10131227
19:00−6w5137689 0.8 1016670
22:00−9wsw4138299 0.0 1019521
8 march, mon
mon801:00−11wsw4128990 0.0 1022397
04:00−14sw4109128 0.0 1025241
07:00−16sw339231 0.0 102868
10:00−11s23850 0.0 1027225
13:00−5sse236948 0.0 1024535
16:00−3se477986 0.0 1019564
19:00−6se4138493 0.0 1016318
22:00−7se3390100 0.0 101284
9 march, tue
tue901:00−2s41583100 0.0 1010484
04:00−1sw61678100 0.0 1009941
07:00−1sw7167988 0.0 10101169
10:00−2wsw9176785 0.4 10141571
13:00−5wsw9157065 0.4 10191465
16:00−5w9157149 0.0 10211493
19:00−9wsw5147824 0.0 1024639
22:00−12sw411860 0.0 1026281